Home > Weather > Fort Bragg > Past weeks

Flag for U.S.A. Weather for the Past 2 Weeks in Fort Bragg, California, U.S.A.

Now
62 °F

Clear.


Feels Like: 62 °F
Forecast: 53 / 61 °F
Wind: 3 mph from Northwest

Location: Ukiah Municipal

Current Time: Feb 10, 2016 at 7:12:24 PM

Latest Report: Feb 10, 2016 at 5:56 PM


Visibility: 10 mi

Pressure: 30.16 "Hg

Humidity: 58%

Dew point: 47 °F

Location of Fort BraggLocation

Historic Weather in Fort Bragg — Graph

°F

Fort Bragg Temperature Yesterday

Maximum temperature yesterday: 74 °F (at 2:56 PM)
Minimum temperature yesterday: 39 °F (at 6:56 AM)
Average temperature yesterday: 54 °F

High & Low Weather Summary for the Past Weeks

 TemperatureHumidityPressure
High82 °F (Feb 8, 2:56 PM)100% (Feb 4, 7:56 AM)30.48 "Hg (Feb 4, 7:56 AM)
Low35 °F (Feb 1, 2:56 AM)20% (Feb 8, 2:56 PM)29.80 "Hg (Jan 31, 2:56 PM)
Average50 °F78%30.23 "Hg
* Reported Jan 26 5:56 PM — Feb 10 5:56 PM, Fort Bragg, Weather by CustomWeather, © 2016

Note: Actual official high and low records may vary slightly from our data, if they occured in-between our weather recording intervals... More about our weather records

Advertising

Fort Bragg Weather History for the Previous 24 Hours

 ConditionsComfort  
Time TempWeatherWind HumidityBarometerVisibility
5:56 PM
Wed, Feb 10
62 °FClear.3 mph58%30.16 "Hg10 mi
4:56 PM67 °FSunny.6 mph47%30.16 "Hg10 mi
3:56 PM71 °FSunny.No wind35%30.17 "Hg10 mi
2:56 PM70 °FSunny.No wind37%30.19 "Hg10 mi
1:56 PM68 °FSunny.No wind40%30.21 "Hg10 mi
12:56 PM64 °FSunny.3 mph47%30.24 "Hg10 mi
11:56 AM60 °FSunny.No wind56%30.27 "Hg10 mi
10:56 AM54 °FSunny.No wind72%30.29 "Hg10 mi
9:56 AM49 °FSunny.No wind84%30.31 "Hg10 mi
8:56 AM44 °FSunny.No wind93%30.30 "Hg10 mi
7:56 AM42 °FSunny.No wind92%30.29 "Hg9 mi
6:56 AM40 °FClear.No wind93%30.27 "Hg10 mi
5:56 AM40 °FClear.No wind93%30.27 "Hg10 mi
4:56 AM42 °FClear.No wind89%30.26 "Hg10 mi
3:56 AM42 °FClear.No wind92%30.24 "Hg10 mi
2:56 AM44 °FClear.3 mph93%30.23 "Hg10 mi
1:56 AM45 °FClear.No wind93%30.22 "Hg10 mi
12:56 AM45 °FClear.No wind93%30.22 "Hg10 mi
11:56 PM
Tue, Feb 9
47 °FClear.3 mph90%30.23 "Hg10 mi
10:56 PM49 °FClear.No wind86%30.22 "Hg9 mi
9:56 PM50 °FClear.No wind86%30.19 "Hg10 mi
8:56 PM52 °FClear.No wind80%30.17 "Hg10 mi
7:56 PM56 °FClear.3 mph72%30.16 "Hg10 mi
Weather by CustomWeather, © 2016

See weather overviewHow to use our weather pages